Weather History for Hill City, KS

Change the Weather History Date:

Thursday, April 3, 2014

  Actual Average Record
Temperature  
Mean Temperature 36 °F 47 °F  
Max Temperature 39 °F 61 °F 90 °F (1928)
Min Temperature 32 °F 33 °F 13 °F (2002)
Degree Days  
Heating Degree Days 28    
Moisture  
Dew Point 35 °F    
Average Humidity 91    
Maximum Humidity 96    
Minimum Humidity 79    
Precipitation  
Precipitation 0.08 in 0.06 in 0.56 in (2012)
Month to date precipitation 0.08 0.15  
Year to date precipitation 0.73 2.75  
Sea Level Pressure  
Sea Level Pressure 29.83 in    
Wind  
Wind Speed 16 mph (North)    
Max Wind Speed 24 mph    
Max Gust Speed 31 mph    
Visibility 4 miles    
Events Rain , Snow    
T = Trace of Precipitation, MM = Missing Value Source: NWS Daily Summary

Daily Weather History Graph

Daily Weather History Graph

Search for Another Location

Airport:

Trip Planner

Search our weather history database for the weather conditions in past years. The results will help you decide how hot, cold, wet, or windy it might be!

Date:

Astronomy

Apr. 03, 2014 Rise Set
Actual Time 7:20 AM CDT 8:05 PM CDT
Civil Twilight 6:53 AM CDT 8:32 PM CDT
Nautical Twilight 6:21 AM CDT 9:04 PM CDT
Astronomical Twilight 5:48 AM CDT 9:37 PM CDT
Moon 9:51 AM CDT (4/3) No Moon Set
Length of Visible Light 13h 39m
Length of Day
12h 44m
Waxing Crescent, 17% of the Moon is Illuminated
Apr 3
Waxing Crescent
Apr 7
First Quarter
Apr 15
Full
Apr 22
Last Quarter
Apr 29
New

Hourly Weather History & Observations

Time (CDT) Temp. Windchill Dew Point Humidity Pressure Visibility Wind Dir Wind Speed Gust Speed Precip Events Conditions
12:00 AM 39.0 °F 30.6 °F 35.1 °F 86% 29.74 in 5.0 mi NNE 15.0 mph - N/A   Overcast
12:53 AM 37.9 °F 28.9 °F 36.0 °F 93% 29.77 in 3.0 mi NNE 16.1 mph - N/A   Overcast
1:07 AM 37.9 °F 30.0 °F 36.0 °F 93% 29.75 in 2.5 mi North 12.7 mph - N/A   Overcast
1:53 AM 36.0 °F 25.6 °F 34.0 °F 93% 29.76 in 2.5 mi North 18.4 mph - N/A   Overcast
2:11 AM 36.0 °F 25.0 °F 34.0 °F 93% 29.74 in 3.0 mi North 20.7 mph - N/A   Overcast
2:53 AM 36.0 °F 26.3 °F 34.0 °F 93% 29.74 in 3.0 mi North 16.1 mph - N/A   Overcast
3:53 AM 37.0 °F 28.5 °F 34.0 °F 89% 29.73 in 4.0 mi North 13.8 mph - N/A   Overcast
4:53 AM 37.0 °F 29.8 °F 34.0 °F 89% 29.73 in 5.0 mi North 10.4 mph - N/A   Overcast
5:53 AM 37.0 °F 29.3 °F 35.1 °F 93% 29.74 in 4.0 mi North 11.5 mph - N/A   Overcast
6:53 AM 37.0 °F 28.5 °F 35.1 °F 93% 29.75 in 4.0 mi North 13.8 mph - N/A   Overcast
7:53 AM 37.0 °F 28.9 °F 35.1 °F 93% 29.78 in 2.5 mi North 12.7 mph - 0.00 in Rain Light Rain
8:50 AM 37.4 °F 29.3 °F 35.6 °F 93% 29.76 in 3.0 mi North 12.7 mph - 0.00 in Rain Light Rain
8:53 AM 37.9 °F 29.6 °F 36.0 °F 93% 29.79 in 3.0 mi North 13.8 mph - 0.00 in Rain Light Rain
9:53 AM 37.9 °F 29.6 °F 36.0 °F 93% 29.80 in 4.0 mi North 13.8 mph - 0.00 in   Overcast
10:45 AM 37.9 °F 27.6 °F 36.0 °F 93% 29.77 in 4.0 mi North 20.7 mph - N/A   Overcast
10:48 AM 37.4 °F 26.9 °F 35.6 °F 93% 29.77 in 4.0 mi North 20.7 mph 26.5 mph N/A   Overcast
10:53 AM 37.9 °F 27.3 °F 35.1 °F 89% 29.80 in 4.0 mi North 21.9 mph - N/A   Overcast
11:33 AM 37.9 °F 28.5 °F 36.0 °F 93% 29.77 in 6.0 mi North 17.3 mph 26.5 mph N/A   Overcast
11:53 AM 37.9 °F 27.9 °F 36.0 °F 93% 29.81 in 4.0 mi North 19.6 mph 24.2 mph N/A   Overcast
12:20 PM 37.9 °F 26.8 °F 35.1 °F 89% 29.77 in 5.0 mi North 24.2 mph 28.8 mph N/A   Overcast
12:23 PM 37.9 °F 28.5 °F 35.1 °F 89% 29.77 in 6.0 mi North 17.3 mph 28.8 mph N/A   Overcast
12:37 PM 37.9 °F 27.6 °F 36.0 °F 93% 29.77 in 3.0 mi North 20.7 mph 25.3 mph 0.00 in Rain Light Rain
12:48 PM 37.4 °F 26.4 °F 35.6 °F 93% 29.77 in 5.0 mi North 23.0 mph 28.8 mph 0.00 in Rain Light Rain
12:53 PM 37.9 °F 27.9 °F 35.1 °F 89% 29.80 in 5.0 mi North 19.6 mph 29.9 mph 0.00 in   Overcast
12:55 PM 37.9 °F 27.6 °F 35.1 °F 89% 29.77 in 5.0 mi North 20.7 mph 29.9 mph N/A   Overcast
1:06 PM 37.9 °F 27.3 °F 35.1 °F 89% 29.77 in 4.0 mi North 21.9 mph 27.6 mph 0.00 in Rain Light Rain
1:25 PM 37.9 °F 28.9 °F 36.0 °F 93% 29.78 in 3.0 mi North 16.1 mph 25.3 mph 0.00 in   Overcast
1:39 PM 37.9 °F 27.9 °F 35.1 °F 89% 29.79 in 4.0 mi North 19.6 mph 25.3 mph 0.00 in   Overcast
1:53 PM 37.9 °F 27.9 °F 35.1 °F 89% 29.83 in 4.0 mi North 19.6 mph 26.5 mph 0.00 in   Overcast
2:00 PM 37.9 °F 28.5 °F 35.1 °F 89% 29.79 in 7.0 mi North 17.3 mph 26.5 mph N/A   Overcast
2:13 PM 37.9 °F 28.5 °F 35.1 °F 89% 29.79 in 3.0 mi North 17.3 mph - 0.00 in Rain Light Rain
2:20 PM 37.9 °F 27.6 °F 35.1 °F 89% 29.80 in 5.0 mi North 20.7 mph 27.6 mph 0.00 in Rain Light Rain
2:28 PM 37.9 °F 29.2 °F 35.1 °F 89% 29.80 in 4.0 mi North 15.0 mph 27.6 mph 0.00 in Rain Light Rain
2:53 PM 37.9 °F 28.5 °F 35.1 °F 89% 29.84 in 3.0 mi North 17.3 mph - 0.00 in Rain Light Rain
3:17 PM 37.0 °F 25.9 °F 34.0 °F 89% 29.80 in 3.0 mi North 23.0 mph 31.1 mph 0.00 in Snow Light Snow
3:24 PM 36.0 °F 25.0 °F 34.0 °F 93% 29.80 in 2.5 mi NNW 20.7 mph 28.8 mph 0.00 in Snow Light Snow
3:50 PM 35.6 °F 25.2 °F 33.8 °F 93% 29.81 in 3.0 mi North 18.4 mph 27.6 mph 0.01 in Snow Light Snow
3:51 PM 36.0 °F 25.6 °F 34.0 °F 93% 29.85 in 3.0 mi North 18.4 mph - 0.01 in Snow Light Snow
4:07 PM 36.0 °F 26.3 °F 34.0 °F 93% 29.82 in 4.0 mi NNW 16.1 mph - 0.00 in Rain Light Rain
4:53 PM 35.1 °F 25.2 °F 33.1 °F 92% 29.88 in 3.0 mi North 16.1 mph - 0.02 in Snow Light Snow
5:05 PM 35.1 °F 25.5 °F 33.1 °F 92% 29.84 in 3.0 mi North 15.0 mph - 0.01 in Rain Light Rain
5:30 PM 36.0 °F 26.7 °F 34.0 °F 93% 29.86 in 6.0 mi NNW 15.0 mph 23.0 mph 0.01 in Rain Light Rain
5:53 PM 37.0 °F 27.0 °F 34.0 °F 89% 29.91 in 5.0 mi NNW 18.4 mph 25.3 mph 0.02 in Rain Light Rain
6:08 PM 37.0 °F 27.4 °F 35.1 °F 93% 29.89 in 7.0 mi NNW 17.3 mph 23.0 mph 0.00 in Rain Light Rain
6:53 PM 37.0 °F 29.3 °F 34.0 °F 89% 29.96 in 7.0 mi NNW 11.5 mph 21.9 mph 0.01 in Rain Light Rain
7:24 PM 36.0 °F 28.0 °F 34.0 °F 93% 29.95 in 5.0 mi NW 11.5 mph - 0.01 in Rain Light Rain
7:29 PM 36.0 °F 29.0 °F 33.1 °F 89% 29.95 in 4.0 mi NW 9.2 mph - 0.01 in Rain Light Rain
7:43 PM 35.1 °F 27.9 °F 33.1 °F 92% 29.96 in 4.0 mi WNW 9.2 mph - 0.02 in Rain Light Rain
7:53 PM 35.1 °F 27.9 °F 33.1 °F 92% 30.01 in 4.0 mi West 9.2 mph - 0.02 in Rain Light Rain
8:11 PM 35.1 °F 30.1 °F 33.1 °F 92% 29.97 in 6.0 mi West 5.8 mph - 0.00 in Rain Light Rain
8:53 PM 35.1 °F 31.0 °F 34.0 °F 96% 30.02 in 8.0 mi West 4.6 mph - 0.00 in   Overcast
10:53 PM 34.0 °F 27.2 °F 30.0 °F 85% 30.06 in 10.0 mi NW 8.1 mph - N/A   Clear
11:53 PM 34.0 °F 24.6 °F 28.0 °F 79% 30.09 in 10.0 mi NNW 13.8 mph - N/A   Clear